Regional Weather Roundup
Issued by NWS Kansas City/Pleasant Hill, MO

Home | Current Version | Previous Version | Graphics & Text | Print | Product List | Glossary Off
Versions: 1 2 3 4 5 6 7 8 9 10 11 12 13 14 15 16 17 18 19 20 21 22 23 24 25 26 27 28 29 30 31 32 33 34 35 36 37 38 39 40 41 42 43 44 45 46 47 48 49 50

320
ASUS43 KEAX 021610
RWREAX

WEATHER ROUNDUP FOR EASTERN KANSAS AND NORTHWEST MISSOURI
NATIONAL WEATHER SERVICE KANSAS CITY/PLEASANT HILL MO
1100 AM CDT MON MAY 02 2016

KSZ040-057-103>105-MOZ028-029-037-043-021700-
...KANSAS CITY METROPOLITAN AREA...

CITY           SKY/WX    TMP DP  RH WIND       PRES   REMARKS
K.C. INTL      CLOUDY    52  45  77 N6        30.12S
K.C. DOWNTOWN  CLOUDY    53  45  74 N6        30.12R
LEES SUMMIT    CLOUDY    52  45  77 NW8       30.11S
OLATHE - IXD   CLOUDY    53  45  74 N9        30.12F
OLATHE - OJC   CLOUDY    51  43  74 N9        30.12S
LAWRENCE       CLOUDY    57  45  64 N12       30.12S

$$

MOZ001>008-011>017-020>025-030>033-038>040-044>046-053-054-021700-
...NORTHERN AND CENTRAL MISSOURI...

CITY           SKY/WX    TMP DP  RH WIND       PRES   REMARKS
ST. JOSEPH     CLOUDY    53  46  77 N9        30.12S
MOSBY          CLOUDY    52  45  76 N6        30.12R
WARRENSBURG    CLOUDY    52  45  76 NW6       30.11R
WHITEMAN AFB   NOT AVBL
CLINTON        CLOUDY    52  46  82 N5        30.11S
SEDALIA        CLOUDY    53  46  77 NW6       30.11R
WARSAW         NOT AVBL
CHILLICOTHE      N/A     54  48  80 VRB5      30.11F
KIRKSVILLE     CLOUDY    54  46  74 NE8       30.10S

$$

MOZ041-047>049-056>058-063>065-088>090-097-021700-
...EASTERN AND SOUTHERN MISSOURI...

CITY           SKY/WX    TMP DP  RH WIND       PRES   REMARKS
ST. LOUIS INTL CLOUDY    55  47  74 NW6       30.06S
SPIRIT OF STL  CLOUDY    54  48  80 NW5       30.06S
COLUMBIA       CLOUDY    54  46  74 CALM      30.09R
JEFFERSON CITY CLOUDY    54  45  71 NW5       30.09S
ROLLA          CLOUDY    52  45  77 NW7       30.06R
OSAGE BEACH    CLOUDY    54  39  58 NW5       30.10S
SPRINGFIELD    CLOUDY    54  44  69 NW8       30.09S
BRANSON        CLOUDY    54  46  76 NW5       30.10S
JOPLIN         CLOUDY    52  45  77 N8        30.13R
WEST PLAINS    MOSUNNY   61  47  59 NW8       30.06F

$$

IAZ060-094-KSZ022-034>040-054-083-096-NEZ052-066-093-021700-
...KANSAS...SOUTHEAST NEBRASKA AND IOWA...

CITY           SKY/WX    TMP DP  RH WIND       PRES   REMARKS
TOPEKA         CLOUDY    56  44  64 N8        30.13S
MANHATTAN      CLOUDY    55  41  59 N8        30.15S
EMPORIA        CLOUDY    54  43  66 NW9       30.14S
CHANUTE        CLOUDY    53  44  71 N8        30.14S
WICHITA        PTSUNNY   57  43  59 N14       30.17S
OMAHA          MOSUNNY   57  44  62 NW7       30.13F
LINCOLN        SUNNY     60  39  45 NE8       30.15F
FALLS CITY     CLOUDY    55  46  71 N8        30.13R
LAMONI         PTSUNNY   55  46  71 N10       30.11S
DES MOINES     PTSUNNY   57  42  57 N6        30.11F

$$





USA.gov is the U.S. government's official web portal to all federal, state and local government web resources and services.